Date,TemperatureHighF,TemperatureAvgF,TemperatureLowF,DewpointHighF,DewpointAvgF,DewpointLowF,HumidityHigh,HumidityAvg,HumidityLow,PressureMaxIn,PressureMinIn,WindSpeedMaxMPH,WindSpeedAvgMPH,GustSpeedMaxMPH,PrecipitationSumIn
2014-1-1,31,24,19,26,18,14,83,79,75,29.49,29.29,11,3,11,0.00
2014-1-2,20,15,4,14,9,-3,83,77,65,29.57,29.18,13,3,13,0.00
2014-1-3,24,9,-5,11,0,-12,74,69,57,29.70,29.34,10,1,10,0.00
2014-1-4,34,25,14,25,16,7,73,69,62,29.34,29.18,16,4,16,0.00
2014-1-5,35,29,9,31,24,4,87,82,72,29.23,28.86,14,0,14,0.00
2014-1-6,8,-9,-14,4,-16,-21,81,73,64,29.54,29.09,22,6,22,0.00
2014-1-7,10,-3,-15,3,-10,-21,74,71,62,29.61,29.51,9,2,10,0.00
2014-1-8,23,15,7,14,8,0,80,75,66,29.70,29.51,7,0,7,0.00
2014-1-9,31,23,14,27,17,7,89,79,71,29.72,29.44,11,2,11,0.00
2014-1-10,38,35,30,36,32,27,93,90,86,29.44,28.85,11,2,11,0.00
2014-1-11,40,36,31,38,33,27,94,91,83,29.01,28.68,21,4,21,0.00
2014-1-12,38,34,29,32,29,25,87,83,77,29.23,28.99,16,4,16,0.00
2014-1-13,46,40,33,41,34,29,86,79,74,29.01,28.84,18,3,18,0.00
2014-1-14,39,31,25,31,25,18,88,80,67,29.12,28.92,24,4,24,0.00
2014-1-15,27,22,18,18,14,11,79,74,67,29.30,29.11,23,3,23,0.00
2014-1-16,30,24,17,26,19,11,86,78,65,29.23,28.85,18,5,18,0.00
2014-1-17,29,18,10,25,11,3,86,76,64,29.23,28.92,17,3,17,0.00
2014-1-18,24,18,11,18,12,6,86,80,69,29.22,28.99,10,2,10,0.00
2014-1-19,34,23,13,26,17,10,88,80,71,29.14,28.84,20,2,20,0.00
2014-1-20,36,33,28,29,27,23,85,77,69,29.14,28.82,18,2,18,0.00
2014-1-21,28,13,1,23,4,-7,83,67,45,29.43,29.10,15,2,15,0.00
2014-1-22,17,8,-2,11,0,-9,83,72,61,29.42,29.16,12,1,12,0.00
2014-1-23,6,0,-5,0,-7,-12,76,71,65,29.80,29.30,21,4,21,0.00
2014-1-24,20,7,-6,14,-1,-12,83,69,57,29.80,28.92,24,5,24,0.00
2014-1-25,31,19,6,25,12,-3,89,73,53,29.12,28.69,24,6,24,0.00
2014-1-26,39,22,4,30,15,-4,80,73,61,29.11,28.68,28,4,28,0.00
2014-1-27,21,2,-8,11,-7,-16,75,67,56,29.65,28.92,20,6,20,0.00
2014-1-28,7,-2,-11,-4,-12,-18,70,65,56,29.67,29.52,15,1,15,0.00
2014-1-29,22,10,-3,9,0,-11,70,63,52,29.52,29.39,16,2,16,0.00
2014-1-30,30,22,12,21,11,2,75,62,53,29.40,29.01,20,5,20,0.00
2014-1-31,32,28,24,26,20,16,83,73,58,29.36,29.13,8,1,8,0.00
2014-2-1,38,33,28,36,30,24,91,89,83,29.29,29.00,9,1,9,0.00
2014-2-2,30,25,17,28,20,12,91,82,74,29.49,29.21,0,0,0,0.00
2014-2-3,32,17,7,20,10,0,82,73,60,29.61,29.43,4,0,4,0.00
2014-2-4,25,17,6,16,11,-1,85,75,67,29.62,29.17,16,3,16,0.00
2014-2-5,30,21,15,21,16,9,86,79,68,29.62,29.05,17,3,17,0.00
2014-2-6,19,9,-3,14,3,-9,83,74,65,29.68,29.60,15,2,15,0.00
2014-2-7,14,6,-6,3,-4,-14,73,65,58,29.67,29.58,8,1,8,0.00
2014-2-8,25,14,0,16,7,-8,81,72,62,29.58,29.34,6,0,6,0.00
2014-2-9,23,17,7,17,12,2,86,78,66,29.48,29.30,9,1,9,0.00
2014-2-10,14,5,-4,4,-2,-10,79,71,63,29.65,29.47,5,0,5,0.00
2014-2-11,22,4,-10,8,-6,-19,73,64,53,29.73,29.62,3,0,3,0.00
2014-2-12,27,9,-6,13,-1,-15,69,64,54,29.63,29.26,4,0,4,0.00
2014-2-13,34,19,2,22,9,-6,72,65,55,29.26,28.79,9,0,9,0.00
2014-2-14,32,19,12,25,12,6,80,75,66,29.09,28.78,18,2,18,0.00
2014-2-15,26,16,6,15,8,1,80,73,58,29.34,29.08,6,0,6,0.00
2014-2-16,27,21,11,19,15,4,83,77,70,29.51,29.15,9,0,9,0.00
2014-2-17,34,24,12,30,18,5,88,79,66,29.52,28.90,24,6,24,0.00
2014-2-18,44,36,26,33,28,20,83,73,64,29.27,28.94,24,4,24,0.00
2014-2-19,42,37,31,34,30,25,83,75,69,29.28,28.89,14,2,14,0.00
2014-2-20,50,39,30,48,35,25,93,85,77,29.23,28.61,23,4,23,0.00
2014-2-21,38,35,32,31,26,24,81,71,58,29.12,28.80,23,5,23,0.00
2014-2-22,43,36,30,30,27,23,88,70,54,29.28,29.07,15,2,15,0.00
2014-2-23,32,27,22,28,20,14,89,75,61,29.43,29.24,11,1,11,0.00
2014-2-24,28,22,15,15,12,8,74,66,54,29.50,29.41,16,3,16,0.00
2014-2-25,26,21,13,16,13,3,79,70,63,29.45,29.32,13,2,13,0.00
2014-2-26,18,11,4,5,1,-3,71,64,53,29.45,29.00,13,2,13,0.00
2014-2-27,19,14,9,9,1,-4,65,57,46,29.41,28.91,42,4,42,0.00
2014-2-28,35,20,6,17,8,-2,70,59,46,29.46,29.26,14,1,14,0.00
2014-3-1,42,30,21,26,20,14,80,67,53,29.47,29.26,10,1,10,0.00
2014-3-2,30,20,11,18,12,2,82,72,56,29.54,29.43,11,1,11,0.00
2014-3-3,25,13,5,8,0,-4,69,56,43,29.68,29.52,9,1,9,0.00
2014-3-4,34,20,8,17,7,-2,73,58,48,29.61,29.39,5,0,5,0.00
2014-3-5,32,21,14,18,11,4,75,65,50,29.62,29.43,14,3,14,0.00
2014-3-6,38,25,16,24,15,8,76,66,54,29.61,29.34,8,2,10,0.00
2014-3-7,52,34,16,36,24,10,81,69,54,29.34,29.15,8,0,8,0.00
2014-3-8,39,34,24,33,28,18,86,81,73,29.46,29.17,11,2,11,0.00
2014-3-9,41,31,20,30,24,16,85,74,61,29.51,29.17,11,1,11,0.00
2014-3-10,55,44,35,43,35,28,80,72,61,29.17,28.92,12,2,12,0.00
2014-3-11,60,46,35,50,40,31,88,78,68,28.94,28.83,10,1,10,0.00
2014-3-12,42,38,32,34,32,29,89,82,73,28.83,28.64,13,4,19,0.00
2014-3-13,35,33,31,24,23,20,73,67,57,29.36,29.22,10,1,10,0.00
2014-3-14,56,44,32,40,33,24,75,67,50,29.22,28.92,22,5,22,0.00
2014-3-15,52,41,33,34,30,24,81,67,47,29.40,29.12,13,2,13,0.00
2014-3-16,33,27,20,24,15,7,71,62,54,29.48,29.32,21,9,24,0.00
2014-3-17,41,27,15,27,17,7,75,66,54,29.31,29.08,19,4,19,0.00
2014-3-18,55,39,26,41,31,21,84,73,59,29.17,28.96,14,1,14,0.00
2014-3-19,50,43,35,45,38,29,89,84,77,29.23,28.90,24,5,24,0.00
2014-3-20,49,39,30,36,30,25,80,70,56,29.32,29.21,16,3,17,0.00
2014-3-21,65,48,32,43,36,28,85,66,40,29.27,28.95,18,2,18,0.00
2014-3-22,53,40,34,40,31,26,77,69,55,29.46,28.96,14,2,14,0.00
2014-3-23,35,30,25,26,19,14,76,63,48,29.59,29.46,8,1,8,0.00
2014-3-24,38,29,21,18,16,12,70,59,43,29.58,29.34,7,0,7,0.00
2014-3-25,32,27,23,24,19,14,83,70,56,29.44,29.20,14,2,14,0.00
2014-3-26,44,30,18,20,16,11,76,58,37,29.58,29.37,11,1,11,0.00
2014-3-27,47,38,32,40,29,19,81,69,55,29.38,28.90,21,3,21,0.00
2014-3-28,50,44,35,45,38,29,88,81,66,29.39,28.84,21,6,21,0.00
2014-3-29,38,35,32,33,31,28,88,83,77,29.43,29.28,11,2,11,0.00
2014-3-30,55,40,26,36,30,23,89,70,45,29.49,29.34,8,0,8,0.00
2014-3-31,41,38,35,33,30,28,78,73,70,29.37,29.34,2,0,2,0.00
2014-4-11,68,63,53,48,40,36,62,43,32,29.28,29.22,7,1,8,0.00
2014-4-12,79,62,46,57,46,35,67,57,41,29.31,29.02,20,2,20,0.00
2014-4-13,75,66,58,59,55,48,77,67,55,29.05,28.83,22,3,22,0.00
2014-4-14,67,49,31,57,44,27,88,82,66,29.12,28.71,23,4,23,0.00
2014-4-15,40,33,28,27,21,17,85,64,42,29.47,29.10,14,4,14,0.00
2014-4-16,56,40,28,31,25,18,70,56,37,29.61,29.44,17,2,17,0.00